Zurück zum Katalog

KUIPER-00220

AktivKommunikationLEO
NORAD 67781·PAYLOAD·🇺🇸 United States

Gestartet Feb 12, 2026 von Guiana Space Centre

Loading…

Nächste Überflüge (nächste 24 Stunden)

TLE

AktuellSource: CelesTrak SupGP

Epoche: Sep 14, 2026, 23:36 UTC

1 67781C 26030T   26257.98398148  .00006221  00000+0  81444-3 0  2573
2 67781  51.8951  63.5502 0000649 109.7458 128.6554 14.79918118    15

Verfolge KUIPER-00220 in Echtzeit mit AllMySat

Download on the App Store